Regional Weather Roundup
Issued by NWS State College, PA

Home | Current Version | Previous Version | Text Only | Print | Product List | Glossary Off
Versions: 1 2 3 4 5 6 7 8 9 10 11 12 13 14 15 16 17 18 19 20 21 22 23 24 25 26 27 28 29 30 31 32 33 34 35 36 37 38 39 40 41 42 43 44 45 46 47 48 49 50

000
ASUS41 KCTP 221503
RWRCTP

REGIONAL WEATHER ROUNDUP
NATIONAL WEATHER SERVICE STATE COLLEGE PA
1000 AM EST MON DEC 22 2014

Note: "fair" indicates few or no clouds below 12,000 feet with no
significant weather and/or obstructions to visibility.

* = STATION THAT DOES NOT REPORT PRECIPITATION /E.G. RAIN...SNOW...ETC/
    THUNDER OR FOG.

PAZ002>004-007>009-013>016-020>023-029>032-221600-
WESTERN PENNSYLVANIA

CITY           SKY/WX    TMP DP  RH WIND       PRES   REMARKS
ERIE           SUNNY     32  22  66 SE9       30.14R
MEADVILLE      MOSUNNY   29  21  72 SE6       30.10S HAZE
FRANKLIN*      MOSUNNY   27  21  80 SE10      30.13S
NEW CASTLE       N/A     27  24  88 CALM      30.14S
BEAVER COUNTY  CLOUDY    30  25  80 SE7       30.11F
BUTLER*        MOSUNNY   30  25  80 E8        30.14F
PITTSBURGH INT CLOUDY    30  25  81 E6        30.11F
PITTSBURGH     CLOUDY    32  24  72 E6        30.11S HAZE
INDIANA*       SUNNY     34  25  69 SE8G14    30.19S
LATROBE        CLOUDY    34  27  75 VRB6      30.16S
WASHINGTON CO* NOT AVBL
$$

PAZ004>006-010>012-017>019-024>028-033>037-041-042-045-046-049>053-221600-
CENTRAL PENNSYLVANIA

CITY           SKY/WX    TMP DP  RH WIND       PRES   REMARKS
BRADFORD       CLOUDY    25  20  81 SE9       30.13S
DUBOIS         MOSUNNY   26  22  84 SE10      30.14S FOG
CLEARFIELD     MOSUNNY   25  21  85 NE7       30.21R
JOHNSTOWN      SUNNY     27  22  81 S8        30.13R
ALTOONA        CLOUDY    27  23  85 E3        30.22S
STATE COLLEGE  CLOUDY    25  21  86 CALM      30.25R
WILLIAMSPORT   PTSUNNY   27  22  81 CALM      30.31S
SELINSGROVE    MOSUNNY   27  23  85 CALM      30.32R FOG
FT INDIANTOWN  PTSUNNY   32  26  78 VRB6      30.33R
CAPITAL CITY   CLOUDY    29  23  78 CALM      30.32S
HARRISBURG     CLOUDY    28  24  85 N3        30.31S
YORK           CLOUDY    28  25  88 N3        30.30R FOG
$$

PAZ038>040-043-044-047-048-054-055-060>062-067>071-221600-
EASTERN PENNSYLVANIA

CITY           SKY/WX    TMP DP  RH WIND       PRES   REMARKS
SCRANTON       CLOUDY    35  26  69 S12G17    30.28R
MOUNT POCONO   CLOUDY    30  27  88 SE7       30.23S
ALLENTOWN      CLOUDY    36  28  73 E3        30.32R
QUAKERTOWN*    CLOUDY    34  30  86 NE3       30.32R
READING        CLOUDY    29  24  82 CALM      30.32R
LANCASTER      MOSUNNY   32  26  78 E10       30.30S
COATESVILLE    SUNNY     34  30  86 CALM      30.30S
POTTSTOWN      PTSUNNY   35  28  75 NW3       30.33R
BLUE BELL      PTSUNNY   37  32  81 CALM      30.31R
DOYLESTOWN     PTSUNNY   36  31  82 VRB3      30.31R
WILLOW GROVE   NOT AVBL
NORTH PHILA    PTSUNNY   40  30  67 NE6       30.34R
PHILADELPHIA   MOSUNNY   39  31  72 NE7       30.32S
$$



USA.gov is the U.S. government's official web portal to all federal, state and local government web resources and services.